Miami, FL

9:22 AM EST on February 23, 2017 (GMT -0500)
Kendall-Tamiami Executive

Weather History for KTMB - April, 2013

Change the Weather History Date:

Sunday, April 7, 2013

  Actual Average Record
Temperature  
Mean Temperature 71 °F -  
Max Temperature 82 °F 80 °F 90 °F (2014)
Min Temperature 61 °F 62 °F 48 °F (2007)
Cooling Degree Days 6    
Growing Degree Days 21 (Base 50)    
Moisture  
Dew Point 62 °F    
Average Humidity 73    
Maximum Humidity 93    
Minimum Humidity 52    
Precipitation  
Precipitation 0.00 in - - ()
Sea Level Pressure  
Sea Level Pressure 30.08 in    
Wind  
Wind Speed 5 mph (East)    
Max Wind Speed 17 mph    
Max Gust Speed 24 mph    
Visibility 10 miles    
Events      
Averages and records for this station are not official NWS values.
T = Trace of Precipitation, MM = Missing Value Source: NWS Daily Summary

Daily Weather History Graph

Daily Weather History Graph

Search for Another Location

Airport or City:

Trip Planner

Search our weather history database for the weather conditions in past years. The results will help you decide how hot, cold, wet, or windy it might be!

Date:

Astronomy

Apr. 07, 2013 Rise Set
Actual Time 7:06 AM EDT 7:41 PM EDT
Civil Twilight 6:43 AM EDT 8:04 PM EDT
Nautical Twilight 6:16 AM EDT 8:31 PM EDT
Astronomical Twilight 5:48 AM EDT 8:59 PM EDT
Moon 5:08 AM EDT (4/7) 5:23 PM EDT (4/7)
Length of Visible Light 13h 21m
Length of Day
12h 34m
Waning Crescent, 8% of the Moon is Illuminated
Apr 7
Waning Crescent
Apr 10
New
Apr 18
First Quarter
Apr 25
Full
May 2
Last Quarter

Hourly Weather History & Observations

Time (EDT) Temp. Heat Index Dew Point Humidity Pressure Visibility Wind Dir Wind Speed Gust Speed Precip Events Conditions
12:53 AM 66.9 °F - 59.0 °F 76% 30.08 in 10.0 mi Calm Calm - N/A   Clear
1:53 AM 63.0 °F - 60.1 °F 90% 30.07 in 10.0 mi Calm Calm - N/A   Clear
2:53 AM 63.0 °F - 60.1 °F 90% 30.04 in 10.0 mi Calm Calm - N/A   Clear
3:53 AM 63.0 °F - 61.0 °F 93% 30.03 in 10.0 mi Calm Calm - N/A   Clear
4:53 AM 61.0 °F - 59.0 °F 93% 30.02 in 10.0 mi Calm Calm - N/A   Clear
5:53 AM 63.0 °F - 60.1 °F 90% 30.04 in 10.0 mi Calm Calm - N/A   Clear
6:53 AM 61.0 °F - 59.0 °F 93% 30.05 in 10.0 mi Calm Calm - N/A   Clear
7:53 AM 64.9 °F - 63.0 °F 93% 30.07 in 10.0 mi Calm Calm - N/A   Clear
8:53 AM 75.0 °F - 64.9 °F 71% 30.09 in 10.0 mi East 6.9 mph - N/A   Clear
9:53 AM 78.1 °F - 62.1 °F 58% 30.11 in 10.0 mi East 12.7 mph - N/A   Scattered Clouds
10:53 AM 79.0 °F - 61.0 °F 54% 30.12 in 10.0 mi East 8.1 mph - N/A   Partly Cloudy
11:53 AM 80.1 °F 81.2 °F 62.1 °F 54% 30.13 in 10.0 mi ESE 13.8 mph 18.4 mph N/A   Scattered Clouds
12:53 PM 81.0 °F 81.9 °F 62.1 °F 52% 30.12 in 10.0 mi East 10.4 mph - N/A   Clear
1:53 PM 79.0 °F - 64.0 °F 60% 30.10 in 10.0 mi ESE 16.1 mph 23.0 mph N/A   Scattered Clouds
2:53 PM 78.1 °F - 64.0 °F 62% 30.09 in 10.0 mi East 17.3 mph 24.2 mph N/A   Mostly Cloudy
3:53 PM 78.1 °F - 63.0 °F 60% 30.08 in 10.0 mi ESE 17.3 mph - N/A   Scattered Clouds
4:53 PM 77.0 °F - 62.1 °F 60% 30.08 in 10.0 mi ESE 15.0 mph 21.9 mph N/A   Scattered Clouds
5:53 PM 77.0 °F - 64.0 °F 64% 30.07 in 10.0 mi ESE 15.0 mph - N/A   Scattered Clouds
6:53 PM 75.0 °F - 62.1 °F 64% 30.08 in 10.0 mi ESE 16.1 mph - N/A   Mostly Cloudy
7:53 PM 73.0 °F - 62.1 °F 68% 30.08 in 10.0 mi East 16.1 mph - N/A   Partly Cloudy
8:53 PM 72.0 °F - 62.1 °F 71% 30.09 in 10.0 mi East 11.5 mph - N/A   Clear
9:53 PM 71.1 °F - 62.1 °F 73% 30.11 in 10.0 mi East 9.2 mph - N/A   Clear
10:53 PM 66.9 °F - 61.0 °F 81% 30.11 in 10.0 mi East 5.8 mph - N/A   Clear
11:53 PM 66.9 °F - 61.0 °F 81% 30.11 in 10.0 mi ENE 4.6 mph - N/A   Partly Cloudy